Date_and_time,latitude,longitude,wind_speed,RelWindDirFrom,WindDirFrom,air_pressure,air_temperature,relative_humidity,Temp,platform_speed_wrt_ground,air_pressure_at_mean_sea_level,platform_orientation
2019-12-28 23:50,50.6304566666667,-96.9807783333333,4.7,5.6,351,992.28,-10.4,91,0.76,0.0,1021.39,165.5
2019-12-29 00:00,50.6304533333333,-96.9807833333333,4.7,5.9,341,992.27,-10.5,91,0.77,0.0,1021.39,270.0
2019-12-29 00:10,50.6304566666667,-96.9807716666667,4.3,5.7,348,992.38,-10.6,92,0.77,0.0,1021.51,270.0
2019-12-29 00:20,50.6304483333333,-96.980755,3.4,4.0,354,992.48,-10.4,91,0.77,0.0,1021.61,270.0
2019-12-29 00:30,50.63045,-96.9807583333333,3.4,5.3,352,992.55,-10.4,90,0.78,0.0,1021.68,270.0
2019-12-29 00:40,50.6304516666667,-96.9807633333333,3.9,4.8,347,992.61,-10.4,90,0.78,0.0,1021.74,270.0
2019-12-29 00:50,50.6304483333333,-96.9807716666667,4.1,5.0,3,992.63,-10.3,89,0.78,0.0,1021.75,270.0
2019-12-29 01:00,50.630455,-96.9807533333333,5.0,6.6,360,992.62,-10.3,89,0.79,0.0,1021.74,36.6
2019-12-29 01:10,50.6304566666667,-96.9807716666667,5.9,7.1,356,992.55,-10.3,89,0.79,0.0,1021.67,36.6
2019-12-29 01:20,50.6304566666667,-96.9807633333333,5.9,7.8,355,992.57,-10.2,89,0.79,0.0,1021.69,36.6
2019-12-29 01:30,50.630445,-96.9807466666667,5.4,7.5,358,992.52,-10.2,89,0.79,0.0,1021.63,36.6
2019-12-29 01:40,50.63045,-96.9807583333333,5.1,6.1,356,992.56,-10.2,89,0.79,0.0,1021.66,36.6
2019-12-29 01:50,50.6304516666667,-96.9807683333333,5.1,6.1,359,992.49,-10.2,90,0.79,0.0,1021.60,36.6
2019-12-29 02:00,50.6304533333333,-96.9807683333333,5.0,6.5,351,992.47,-10.2,90,0.80,0.0,1021.58,345.5
2019-12-29 02:10,50.6304533333333,-96.9807683333333,5.2,6.6,347,992.50,-10.1,90,0.80,0.0,1021.60,345.5
2019-12-29 02:20,50.63043,-96.9807733333333,4.1,6.0,346,992.58,-9.9,90,0.81,0.0,1021.67,345.5
2019-12-29 02:30,50.6304516666667,-96.980765,3.6,5.0,342,992.79,-9.8,89,0.82,0.0,1021.88,345.5
2019-12-29 02:40,50.6304516666667,-96.9807566666667,4.7,6.9,338,992.79,-10.0,89,0.82,0.0,1021.89,345.5
2019-12-29 02:50,50.6304516666667,-96.9807566666667,5.7,7.6,339,992.71,-10.1,89,0.82,0.0,1021.80,345.5
2019-12-29 03:00,50.6304516666667,-96.9807566666667,6.6,8.1,348,992.72,-9.9,89,0.82,0.0,1021.81,90.0
2019-12-29 03:10,50.6304583333333,-96.9807566666667,6.2,8.3,338,992.70,-10.0,89,0.82,0.0,1021.79,90.0
2019-12-29 03:20,50.6304466666667,-96.9807683333333,7.6,9.8,343,992.66,-10.0,89,0.83,0.0,1021.75,90.0
2019-12-29 03:30,50.6304466666667,-96.98077,9.1,11.6,354,992.62,-9.7,89,0.83,0.0,1021.69,90.0
2019-12-29 03:40,50.6304466666667,-96.9807733333333,10.0,12.0,360,992.49,-9.7,89,0.83,0.0,1021.55,90.0
2019-12-29 03:50,50.6304466666667,-96.9807766666667,8.6,10.7,4,992.58,-9.8,89,0.83,0.0,1021.65,90.0
2019-12-29 04:00,50.6304483333333,-96.98077,8.7,10.7,7,992.42,-9.8,90,0.83,0.0,1021.48,240.8
2019-12-29 04:10,50.63045,-96.9807666666667,8.7,10.9,3,992.47,-9.8,90,0.83,0.0,1021.52,240.8
2019-12-29 04:20,50.6304483333333,-96.9807666666667,8.5,10.7,1,992.68,-9.9,90,0.83,0.0,1021.73,240.8
2019-12-29 04:30,50.6304483333333,-96.9807666666667,7.1,8.3,358,992.90,-10.0,90,0.83,0.0,1021.98,240.8
2019-12-29 04:40,50.6304483333333,-96.980765,7.6,9.3,352,992.73,-10.1,90,0.83,0.0,1021.82,240.8
2019-12-29 04:50,50.63045,-96.980765,8.0,10.5,353,992.76,-10.2,90,0.82,0.0,1021.85,240.8
2019-12-29 05:00,50.63045,-96.980765,8.9,10.7,353,992.58,-10.1,90,0.82,0.0,1021.66,90.0
2019-12-29 05:10,50.63045,-96.9807633333333,8.8,10.8,350,992.64,-10.0,89,0.82,0.0,1021.71,90.0
2019-12-29 05:20,50.63045,-96.980755,8.0,10.2,351,992.70,-10.0,89,0.82,0.0,1021.76,90.0
2019-12-29 05:30,50.6304516666667,-96.98075,7.9,10.1,347,992.78,-10.2,89,0.82,0.0,1021.85,90.0
2019-12-29 05:40,50.6304483333333,-96.9807483333333,7.4,9.4,349,992.62,-10.3,89,0.82,0.0,1021.70,90.0
2019-12-29 05:50,50.6304516666667,-96.980755,8.4,10.2,348,992.48,-10.5,90,0.82,0.0,1021.57,90.0
2019-12-29 06:00,50.6304516666667,-96.9807566666667,8.3,10.1,347,992.54,-10.6,90,0.81,0.0,1021.64,0.0
2019-12-29 06:10,50.6304533333333,-96.9807583333333,8.5,10.4,348,992.38,-10.7,90,0.80,0.0,1021.48,0.0
2019-12-29 06:20,50.6304533333333,-96.9807566666667,7.6,9.4,350,992.36,-10.9,90,0.79,0.0,1021.47,0.0
2019-12-29 06:30,50.6304533333333,-96.9807583333333,8.5,10.2,352,992.18,-11.0,91,0.79,0.0,1021.31,0.0
2019-12-29 06:40,50.630455,-96.98076,8.9,10.5,355,992.08,-11.2,91,0.79,0.0,1021.21,0.0
2019-12-29 06:50,50.630455,-96.98076,9.2,11.4,1,991.97,-11.2,91,0.78,0.0,1021.10,0.0
2019-12-29 07:00,50.6304733333333,-96.9807683333333,9.9,12.0,2,991.80,-11.2,91,0.78,0.0,1020.91,9.8
2019-12-29 07:10,50.630475,-96.980765,10.7,13.0,1,991.48,-11.4,91,0.78,0.0,1020.60,9.8
2019-12-29 07:20,50.6304733333333,-96.9807666666667,11.2,13.5,357,991.39,-11.5,91,0.78,0.0,1020.52,9.8
2019-12-29 07:30,50.6304683333333,-96.9807616666667,10.8,13.6,357,991.25,-11.4,92,0.78,0.0,1020.39,9.8
2019-12-29 07:40,50.6304516666667,-96.9807583333333,9.4,11.7,358,991.36,-11.3,92,0.77,0.0,1020.50,9.8
2019-12-29 07:50,50.63049,-96.9808133333333,9.7,12.5,355,991.47,-11.4,92,0.78,0.0,1020.63,9.8
2019-12-29 08:00,50.6304783333333,-96.9807766666667,10.4,12.7,357,991.58,-11.4,92,0.78,0.0,1020.74,346.7
2019-12-29 08:10,50.6304366666667,-96.98077,9.6,12.3,357,991.81,-11.4,92,0.77,0.0,1020.99,346.7
2019-12-29 08:20,50.63047,-96.9807683333333,10.1,13.3,354,991.91,-11.5,92,0.77,0.0,1021.11,346.7
2019-12-29 08:30,50.6304633333333,-96.9807666666667,10.2,12.6,348,991.82,-11.7,91,0.77,0.0,1021.04,346.7
2019-12-29 08:40,50.6304633333333,-96.980765,9.7,12.5,346,991.90,-11.9,92,0.77,0.0,1021.13,346.7
2019-12-29 08:50,50.6304666666667,-96.9807566666667,9.7,14.1,347,991.98,-11.9,91,0.77,0.0,1021.21,346.7
2019-12-29 09:00,50.6304566666667,-96.9807666666667,10.6,15.3,347,991.92,-11.9,92,0.76,0.0,1021.16,270.0
2019-12-29 09:10,50.6304766666667,-96.9807583333333,12.4,15.0,349,991.61,-11.8,92,0.76,0.0,1020.84,270.0
2019-12-29 09:20,50.6304716666667,-96.98075,11.9,15.0,350,991.67,-11.9,91,0.76,0.0,1020.90,270.0
2019-12-29 09:30,50.6304866666667,-96.9808233333333,12.6,16.0,353,991.58,-11.9,91,0.76,0.0,1020.81,270.0
2019-12-29 09:40,50.6304733333333,-96.9807666666667,13.0,16.1,353,991.46,-12.0,91,0.76,0.0,1020.70,270.0
2019-12-29 09:50,50.6304666666667,-96.9807616666667,11.9,15.4,357,991.53,-12.1,91,0.75,0.0,1020.77,270.0
2019-12-29 10:00,50.630465,-96.9807616666667,12.2,14.6,357,991.56,-12.1,91,0.75,0.0,1020.81,131.7
2019-12-29 10:10,50.6304683333333,-96.9807983333333,11.9,14.8,353,991.39,-12.2,91,0.75,0.0,1020.64,131.7
2019-12-29 10:20,50.63045,-96.980785,12.8,16.9,359,991.31,-12.0,91,0.74,0.0,1020.56,131.7
2019-12-29 10:30,50.6304566666667,-96.9807616666667,14.0,17.7,359,991.19,-11.9,91,0.73,0.0,1020.44,131.7
2019-12-29 10:40,50.63046,-96.980765,14.9,18.6,2,991.05,-12.0,91,0.73,0.0,1020.30,131.7
2019-12-29 10:50,50.63046,-96.9807616666667,14.8,18.3,0,991.05,-12.1,91,0.72,0.0,1020.31,131.7
2019-12-29 11:00,50.63046,-96.9807583333333,14.5,17.1,0,991.00,-12.2,91,0.72,0.0,1020.25,165.5
2019-12-29 11:10,50.6304583333333,-96.98076,15.0,18.6,360,990.88,-12.4,91,0.72,0.0,1020.15,165.5
2019-12-29 11:20,50.6304583333333,-96.98076,15.0,17.6,360,990.75,-12.4,91,0.72,0.0,1020.01,165.5
2019-12-29 11:30,50.6304583333333,-96.9807616666667,15.0,19.6,355,990.62,-12.5,91,0.72,0.0,1019.89,165.5
2019-12-29 11:40,50.630475,-96.9807633333333,15.1,18.5,357,990.61,-12.5,90,0.72,0.0,1019.88,165.5
2019-12-29 11:50,50.63046,-96.9807633333333,14.9,18.6,358,990.56,-12.5,90,0.72,0.0,1019.83,165.5
2019-12-29 12:00,50.6304533333333,-96.9807583333333,14.7,18.4,358,990.55,-12.5,90,0.72,0.0,1019.83,90.0
2019-12-29 12:10,50.6305,-96.9807683333333,14.7,18.5,0,990.55,-12.4,90,0.71,0.0,1019.81,90.0
2019-12-29 12:20,50.6304516666667,-96.9807616666667,14.1,17.6,359,990.41,-12.4,90,0.71,0.0,1019.67,90.0
2019-12-29 12:30,50.6304533333333,-96.9807633333333,14.8,19.0,359,990.43,-12.4,90,0.71,0.0,1019.69,90.0
2019-12-29 12:40,50.630465,-96.980795,14.8,18.5,357,990.56,-12.4,90,0.71,0.0,1019.83,90.0
2019-12-29 12:50,50.6304616666667,-96.9807633333333,14.3,17.0,358,990.67,-12.5,90,0.70,0.0,1019.95,90.0
2019-12-29 13:00,50.63046,-96.980765,15.1,18.6,358,990.58,-12.5,90,0.70,0.0,1019.87,194.5
2019-12-29 13:10,50.63046,-96.9807683333333,16.2,20.0,360,990.35,-12.5,89,0.70,0.0,1019.64,194.5
2019-12-29 13:20,50.6304633333333,-96.98076,16.7,22.0,359,990.31,-12.6,89,0.70,0.0,1019.61,194.5
2019-12-29 13:30,50.6304633333333,-96.9807583333333,16.6,21.6,358,990.38,-12.7,89,0.70,0.0,1019.69,194.5
2019-12-29 13:40,50.630485,-96.98079,16.3,21.1,357,990.35,-12.8,89,0.71,0.0,1019.66,194.5
2019-12-29 13:50,50.6304583333333,-96.9807516666667,15.8,20.8,357,990.36,-13.0,88,0.70,0.0,1019.67,194.5
2019-12-29 14:00,50.630455,-96.9807583333333,15.5,19.0,356,990.29,-13.2,89,0.70,0.0,1019.62,360.0
2019-12-29 14:10,50.630455,-96.9807616666667,15.1,19.5,358,990.21,-13.2,89,0.70,0.0,1019.53,360.0
2019-12-29 14:20,50.630455,-96.9807616666667,15.9,19.3,359,990.17,-13.2,89,0.70,0.0,1019.48,360.0
2019-12-29 14:30,50.6304566666667,-96.9807633333333,14.3,19.3,357,990.24,-13.2,89,0.70,0.0,1019.56,360.0
2019-12-29 14:40,50.6304566666667,-96.9807633333333,16.0,19.7,357,990.09,-13.1,89,0.70,0.0,1019.41,360.0
2019-12-29 14:50,50.6304783333333,-96.98076,16.7,19.9,360,990.00,-12.9,89,0.70,0.0,1019.31,360.0
2019-12-29 15:00,50.6304716666667,-96.9807716666667,16.8,19.6,0,989.93,-13.0,88,0.70,0.0,1019.24,360.0
2019-12-29 15:10,50.6304516666667,-96.9807883333333,16.4,21.3,0,989.96,-12.9,88,0.70,0.0,1019.27,360.0
2019-12-29 15:20,50.6304516666667,-96.9807816666667,17.3,20.7,1,989.85,-12.9,88,0.70,0.0,1019.16,360.0
2019-12-29 15:30,50.630455,-96.98078,18.8,23.0,1,989.84,-12.9,87,0.70,0.0,1019.16,360.0
2019-12-29 15:40,50.6304566666667,-96.98078,17.8,20.9,1,990.00,-13.0,87,0.70,0.0,1019.34,360.0
2019-12-29 15:50,50.6304583333333,-96.9807733333333,17.6,21.4,359,989.99,-13.1,87,0.70,0.0,1019.34,360.0
2019-12-29 16:00,50.6304583333333,-96.980765,18.0,21.4,0,989.98,-13.0,87,0.70,0.0,1019.33,0.0
2019-12-29 16:10,50.63046,-96.9807616666667,18.0,22.0,1,989.87,-13.1,87,0.69,0.0,1019.21,0.0
2019-12-29 16:20,50.6304566666667,-96.980765,17.7,22.7,2,989.90,-13.0,87,0.69,0.0,1019.24,0.0
2019-12-29 16:30,50.63045,-96.980765,17.0,20.9,0,989.90,-13.0,87,0.69,0.0,1019.24,0.0
2019-12-29 16:40,50.63045,-96.980765,16.3,21.1,1,989.85,-12.9,87,0.69,0.0,1019.17,0.0
2019-12-29 16:50,50.630445,-96.9807833333333,15.9,18.9,2,989.83,-12.8,87,0.69,0.0,1019.15,0.0
2019-12-29 17:00,50.6304483333333,-96.9807733333333,16.8,21.0,360,989.69,-12.8,86,0.69,0.0,1019.00,240.8
2019-12-29 17:10,50.6304466666667,-96.980775,15.7,19.4,357,989.50,-12.7,86,0.68,0.0,1018.80,240.8
2019-12-29 17:20,50.630445,-96.980775,15.3,18.7,357,989.32,-12.5,86,0.68,0.0,1018.61,240.8
2019-12-29 17:30,50.630445,-96.9807733333333,14.8,20.3,360,989.25,-12.3,86,0.67,0.0,1018.53,240.8
2019-12-29 17:40,50.630445,-96.9807716666667,14.5,19.2,2,989.15,-12.2,86,0.67,0.0,1018.42,240.8
2019-12-29 17:50,50.6304466666667,-96.98077,13.7,17.9,355,988.93,-11.9,85,0.67,0.0,1018.17,240.8
2019-12-29 18:00,50.6304466666667,-96.9807683333333,13.2,18.3,346,988.70,-12.1,84,0.67,0.0,1017.95,360.0
2019-12-29 18:10,50.6304483333333,-96.9807666666667,12.8,17.8,347,988.54,-12.4,84,0.67,0.0,1017.80,360.0
2019-12-29 18:20,50.63045,-96.9807666666667,14.2,18.3,345,988.21,-12.6,85,0.67,0.0,1017.47,360.0
2019-12-29 18:30,50.6304516666667,-96.9807666666667,14.2,19.1,343,987.90,-12.7,85,0.66,0.0,1017.15,360.0
2019-12-29 18:40,50.6304516666667,-96.9807666666667,14.2,18.6,347,987.73,-12.5,84,0.66,0.0,1016.97,360.0
2019-12-29 18:50,50.6304416666667,-96.98078,12.9,16.4,347,987.83,-12.5,84,0.66,0.0,1017.06,360.0
2019-12-29 19:00,50.63045,-96.9807683333333,13.0,17.8,344,987.83,-12.6,84,0.65,0.0,1017.06,142.0
2019-12-29 19:10,50.6304516666667,-96.9807683333333,14.0,18.1,345,987.78,-12.7,84,0.64,0.0,1017.00,142.0
2019-12-29 19:20,50.6304533333333,-96.9807633333333,14.0,17.9,348,987.57,-12.6,84,0.64,0.0,1016.78,142.0
2019-12-29 19:30,50.63045,-96.9807616666667,15.1,19.0,351,987.57,-12.6,83,0.64,0.0,1016.76,142.0
2019-12-29 19:40,50.63045,-96.9807616666667,14.6,19.4,348,987.58,-12.7,83,0.64,0.0,1016.76,142.0
2019-12-29 19:50,50.6304483333333,-96.9807633333333,13.7,18.5,350,987.54,-12.6,84,0.64,0.0,1016.73,142.0
2019-12-29 20:00,50.6304483333333,-96.9807666666667,13.3,17.6,350,987.46,-12.5,84,0.64,0.0,1016.66,90.0
2019-12-29 20:10,50.63045,-96.9807683333333,13.0,16.6,351,987.40,-12.3,84,0.64,0.0,1016.60,90.0
2019-12-29 20:20,50.6304516666667,-96.980785,14.4,19.3,353,987.26,-12.1,84,0.64,0.0,1016.44,90.0
2019-12-29 20:30,50.6304516666667,-96.9807766666667,15.3,20.8,353,987.21,-12.0,83,0.64,0.0,1016.38,90.0
2019-12-29 20:40,50.6304533333333,-96.980775,15.0,20.1,352,987.12,-11.9,84,0.64,0.0,1016.28,90.0
2019-12-29 20:50,50.6304516666667,-96.980775,15.6,21.1,353,987.02,-11.8,84,0.64,0.0,1016.18,90.0
2019-12-29 21:00,50.6304516666667,-96.980775,15.5,20.3,352,986.99,-11.7,84,0.64,0.0,1016.15,347.4
2019-12-29 21:10,50.6304516666667,-96.9807733333333,17.3,21.6,352,986.77,-11.7,84,0.64,0.0,1015.91,347.4
2019-12-29 21:20,50.6304516666667,-96.9807716666667,16.7,22.1,353,986.76,-11.6,84,0.64,0.0,1015.90,347.4
2019-12-29 21:30,50.630455,-96.9807583333333,17.1,24.2,353,986.74,-11.5,84,0.64,0.0,1015.87,347.4
2019-12-29 21:40,50.6304566666667,-96.980775,18.0,23.1,353,986.54,-11.4,84,0.65,0.0,1015.67,347.4
2019-12-29 21:50,50.6304533333333,-96.9807683333333,16.0,21.4,350,986.51,-11.3,84,0.65,0.0,1015.62,347.4
2019-12-29 22:00,50.6304533333333,-96.9807683333333,16.5,24.2,351,986.53,-11.3,85,0.66,0.0,1015.63,90.0
2019-12-29 22:10,50.6304533333333,-96.9807666666667,15.9,21.2,352,986.53,-11.4,85,0.66,0.0,1015.63,90.0
2019-12-29 22:20,50.63046,-96.9807683333333,16.5,21.9,353,986.56,-11.4,85,0.65,0.0,1015.65,90.0
2019-12-29 22:30,50.6304583333333,-96.9807683333333,17.0,21.6,356,986.70,-11.4,85,0.66,0.0,1015.79,90.0
2019-12-29 22:40,50.6304616666667,-96.98077,16.9,21.3,356,986.85,-11.5,85,0.66,0.0,1015.94,90.0
2019-12-29 22:50,50.630445,-96.980765,17.3,22.5,355,986.73,-11.5,85,0.66,0.0,1015.82,90.0
2019-12-29 23:00,50.6304483333333,-96.980765,19.9,24.9,357,986.55,-11.4,85,0.66,0.0,1015.62,0.0
2019-12-29 23:10,50.630465,-96.9807616666667,19.6,23.7,359,986.50,-11.4,86,0.66,0.0,1015.56,0.0
2019-12-29 23:20,50.6304683333333,-96.980765,20.7,26.4,1,986.45,-11.3,86,0.66,0.0,1015.50,0.0
2019-12-29 23:30,50.63046,-96.9807683333333,19.3,23.5,356,986.37,-11.3,86,0.67,0.0,1015.41,0.0
